Weather History for KGPI - December, 2013

Change the Weather History Date:

Thursday, December 5, 2013

  Actual Average Record
Temperature  
Mean Temperature 6 °F 25 °F  
Max Temperature 15 °F 32 °F 47 °F (1989)
Min Temperature -4 °F 18 °F -8 °F (1972)
Degree Days  
Heating Degree Days 59 40  
Month to date heating degree days 233 198  
Since 1 July heating degree days 2310 2402  
Cooling Degree Days 0 0  
Month to date cooling degree days 0 0  
Year to date cooling degree days 264 147  
Moisture  
Dew Point -3 °F    
Average Humidity 71    
Maximum Humidity 87    
Minimum Humidity 55    
Precipitation  
Precipitation T in 0.05 in 0.60 in (1911)
Month to date precipitation 0.45 0.25  
Year to date precipitation 16.35 15.68  
Snow  
Snow 0.00 in - - ()
Month to date snowfall 1.5  
Year to date snowfall 22.9  
Since 1 July snowfall 12.8  
Snow Depth T in    
Sea Level Pressure  
Sea Level Pressure 30.40 in    
Wind  
Wind Speed 5 mph (NNE)    
Max Wind Speed 22 mph    
Max Gust Speed 26 mph    
Visibility 10 miles    
Events      
T = Trace of Precipitation, MM = Missing Value Source: NWS Daily Summary

Daily Weather History Graph

Daily Weather History Graph

Search for Another Location

Airport or City:

Trip Planner

Search our weather history database for the weather conditions in past years. The results will help you decide how hot, cold, wet, or windy it might be!

Date:

Astronomy

Dec. 05, 2013 Rise Set
Actual Time 8:12 AM MST 4:43 PM MST
Civil Twilight 7:36 AM MST 5:19 PM MST
Nautical Twilight 6:56 AM MST 5:58 PM MST
Astronomical Twilight 6:18 AM MST 6:36 PM MST
Moon 10:28 AM MST (12/5) 8:17 PM MST (12/5)
Length of Visible Light 9h 43m
Length of Day
8h 31m
Waxing Crescent, 11% of the Moon is Illuminated
Dec 5
Waxing Crescent
Dec 9
First Quarter
Dec 17
Full
Dec 25
Last Quarter
Jan 1
New

Hourly Weather History & Observations

Time (MST) Temp. Windchill Dew Point Humidity Pressure Visibility Wind Dir Wind Speed Gust Speed Precip Events Conditions
12:55 AM -2.9 °F - -6.0 °F 87% 30.40 in 10.0 mi Calm Calm - N/A   Overcast
1:55 AM 1.9 °F - -2.9 °F 80% 30.38 in 10.0 mi Calm Calm - N/A   Overcast
2:55 AM 1.9 °F - -2.0 °F 83% 30.37 in 8.0 mi Calm Calm - N/A   Overcast
3:55 AM 3.9 °F - -0.0 °F 84% 30.38 in 7.0 mi Calm Calm - N/A   Overcast
4:55 AM 3.9 °F -5.3 °F -0.0 °F 84% 30.38 in 10.0 mi NE 4.6 mph - N/A   Overcast
5:55 AM 1.0 °F -6.7 °F -2.9 °F 83% 30.39 in 10.0 mi SW 3.5 mph - N/A   Overcast
6:55 AM 1.9 °F - -2.0 °F 83% 30.39 in 10.0 mi Calm Calm - N/A   Overcast
7:55 AM 1.0 °F - -4.0 °F 79% 30.40 in 4.0 mi Calm Calm - N/A   Overcast
8:55 AM -0.0 °F - -4.0 °F 83% 30.42 in 10.0 mi Calm Calm - N/A   Overcast
9:55 AM 5.0 °F - -0.9 °F 76% 30.42 in 10.0 mi Calm Calm - N/A   Clear
10:55 AM 8.1 °F -4.3 °F -0.9 °F 67% 30.42 in 10.0 mi NE 8.1 mph - 0.00 in   Partly Cloudy
11:55 AM 10.0 °F 1.8 °F -0.9 °F 61% 30.41 in 10.0 mi NE 4.6 mph - N/A   Scattered Clouds
12:55 PM 12.0 °F 4.1 °F -0.0 °F 59% 30.39 in 10.0 mi NE 4.6 mph - N/A   Clear
1:55 PM 12.9 °F 3.8 °F -0.0 °F 56% 30.37 in 10.0 mi NNE 5.8 mph - N/A   Clear
2:55 PM 14.0 °F 6.5 °F -0.9 °F 52% 30.36 in 10.0 mi North 4.6 mph - N/A   Clear
3:55 PM 10.0 °F - 1.0 °F 67% 30.37 in 10.0 mi Calm Calm - N/A   Mostly Cloudy
4:55 PM 8.1 °F - -2.0 °F 64% 30.38 in 10.0 mi Calm Calm - N/A   Scattered Clouds
5:55 PM 6.1 °F -4.3 °F -2.0 °F 69% 30.40 in 10.0 mi NNW 5.8 mph - N/A   Clear
6:55 PM 5.0 °F -8.1 °F -2.9 °F 70% 30.40 in 10.0 mi NNE 8.1 mph - N/A   Clear
7:55 PM 6.1 °F -9.5 °F -5.1 °F 60% 30.41 in 10.0 mi NNE 11.5 mph - N/A   Clear
8:55 PM 5.0 °F -12.3 °F -7.1 °F 58% 30.43 in 10.0 mi NNE 13.8 mph - N/A   Clear
9:55 PM 5.0 °F -14.2 °F -8.0 °F 55% 30.43 in 10.0 mi NNE 17.3 mph - N/A   Clear
10:55 PM 3.9 °F -15.6 °F -9.0 °F 55% 30.44 in 10.0 mi NNE 17.3 mph 24.2 mph N/A   Clear
11:55 PM 3.0 °F -14.1 °F -9.9 °F 55% 30.44 in 10.0 mi NNE 12.7 mph 25.3 mph N/A   Partly Cloudy